Content
SEND FEEDBACK

Daily
Averages
Monthly
Summary
United States of America

PURVIS, MISSISSIPPI


Home > North America > United States > Mississippi
Elevation: 0 feet     Latitude: 31 09N     Longitude: 089 25W

WEATHER
 
SELECT A DAY
Number of Records: 153,459;   Date Range: 5/10/00 - 7/20/14
 
SHARE

PRINT THIS DATA

[ ← Previous Day ]
WEATHER ALMANAC - JANUARY 31, 2013
[ Next Day → ]
[ °C ]   °F
Weather ElementAverageHighLow
Temperature46.6 °F60.1 °F (2:53 pm)33.1 °F (5:53 am)
Dewpoint29.1 °F37 °F (6:53 pm)23 °F (1:53 pm)
Humidity55.5 %89 % (5:53 am)24 % (2:53 pm)
Barometer30.25 in30.33 in (10:53 pm)30.19 in (1:53 am)
Wind Speed4.4 mph9.2 mph (12:53 pm)
Wind Gust19.6 mph (12:53 pm)
Weather ElementAverage
Visibility10 mi
Wind DirectionSSE (173.5 °)

Weather ElementTotal
Precipitation---
Heating Degree Days18.4 (Base 65)
Averaged from 23 records on January 31, 2013
WEATHER CONDITIONS BREAKOUT
WIND DIRECTION BREAKOUT
WEATHER BY HOUR - JANUARY 31, 2013
[ °C ]   °F
Local TimeTemperatureDewpointHumidityBarometerVisibilityWind DirectionWind SpeedGust SpeedPrecipitationEventsConditions
1:53 AM37.9 °F30.0 °F73 %30.19 in10.0 miWest (280°)4.6 mphClear
2:53 AM39.0 °F30.0 °F70 %30.20 in10.0 miWest (270°)5.8 mphClear
3:53 AM37.0 °F28.9 °F73 %30.19 in10.0 miWest (280°)4.6 mphClear
4:53 AM37.0 °F28.9 °F73 %30.19 in10.0 miCalmClear
5:53 AM33.1 °F30.0 °F89 %30.21 in10.0 miCalmClear
6:53 AM33.1 °F28.9 °F85 %30.23 in10.0 miCalmClear
7:53 AM39.9 °F30.0 °F68 %30.26 in10.0 miWest (270°)3.5 mphClear
8:53 AM46.0 °F30.9 °F56 %30.28 in10.0 miWest (280°)6.9 mphClear
9:53 AM50.0 °F27.0 °F41 %30.30 in10.0 miWest (260°)6.9 mphClear
10:53 AM53.1 °F26.1 °F35 %30.30 in10.0 miWest (270°)5.8 mphClear
11:53 AM55.0 °F26.1 °F33 %30.28 in10.0 miVariable6.9 mphClear
12:53 PM57.0 °F25.0 °F29 %30.25 in10.0 miNNW (330°)9.2 mph19.6 mphClear
1:53 PM59.0 °F23.0 °F25 %30.24 in10.0 miVariable5.8 mphClear
2:53 PM60.1 °F23.0 °F24 %30.23 in10.0 miVariable6.9 mphClear
3:53 PM59.0 °F23.0 °F25 %30.23 in10.0 miWest (280°)4.6 mphClear
4:53 PM59.0 °F23.0 °F25 %30.24 in10.0 miWSW (250°)4.6 mphClear
5:53 PM52.0 °F32.0 °F47 %30.24 in10.0 miSW (220°)3.5 mphClear
6:53 PM45.0 °F37.0 °F74 %30.25 in10.0 miSouth (170°)3.5 mphClear
7:53 PM45.0 °F35.1 °F68 %30.27 in10.0 miSouth (190°)4.6 mphClear
8:53 PM46.0 °F32.0 °F58 %30.28 in10.0 miSSW (200°)4.6 mphClear
9:53 PM43.0 °F33.1 °F68 %30.31 in10.0 miCalmClear
10:53 PM41.0 °F35.1 °F79 %30.33 in10.0 miSSW (210°)3.5 mphClear
11:53 PM45.0 °F30.9 °F58 %30.33 in10.0 miSW (230°)4.6 mphClear
Hourly data recorded from KHBG, located miles away from Purvis, Mississippi







STORIES FROM OUR PARTNERS